Hourly Data Report for December 09, 2020

L'ASSOMPTION
QUEBEC
Current Station Operator: ECCC - MSC

45°48'34.000" N
73°26'05.000" W
21.00 m
7014160
71524
WEW

Download Data

Hourly Data (December 2020)
Hourly Data Report for December 9, 2020
TIME
LST
Temp Definition
°C
Dew Point Definition
°C
Rel Hum Definition
%
Precip. Amount Definition
mm

Wind Dir Definition
10's deg

Wind Spd Definition
km/h
Visibility Definition
km
Stn Press Definition
kPa
Hmdx Definition


Wind Chill Definition


Weather Definition


00:00 -6.8 -9.9 78 0.0 23 10   100.65   -11 LegendNANA
01:00 -6.5 -9.1 82 0.0 21 10   100.61   -11 LegendNANA
02:00 -7.0 -9.1 85 0.0 20 5   100.57   -10 LegendNANA
03:00 -7.2 -9.1 86 0.0 21 8   100.53   -11 LegendNANA
04:00 -5.8 -7.7 86 0.0 18 6   100.46   -9 LegendNANA
05:00 -5.3 -7.6 84 0.0 22 6   100.42   -8 LegendNANA
06:00 -4.6 -7.7 78 0.0 13 5   100.34   -7 LegendNANA
07:00 -4.5 -6.4 87 0.0 15 8   100.35   -8 LegendNANA
08:00 -4.5 -5.6 92 0.3 9 5   100.30   -7 LegendNANA
09:00 -3.5 -4.4 93 0.2 11 5   100.23   -6 LegendNANA
10:00 -2.3 -3.7 90 0.2 16 8   100.20   -5 LegendNANA
11:00 -1.6 -3.2 89 0.0 18 9   100.11   -5 LegendNANA
12:00 -1.1 -2.5 91 0.0 19 6   100.05   -3 LegendNANA
13:00 -0.8 -2.1 91 0.2 20 5   99.99   -2 LegendNANA
14:00 -2.5 -3.5 93 0.5 31 6   99.99   -5 LegendNANA
15:00 -2.6 -3.8 92 0.3 33 6   100.01   -5 LegendNANA
16:00 -2.7 -3.7 93 0.5 32 7   100.07   -6 LegendNANA
17:00 -2.7 -3.8 92 0.0 33 7   100.14   -6 LegendNANA
18:00 -2.6 -3.5 93 0.0 36 4   100.15   -4 LegendNANA
19:00 -2.5 -3.4 94 0.0 33 5   100.21   -4 LegendNANA
20:00 -2.4 -3.2 95 0.2 32 3   100.22   -4 LegendNANA
21:00 -2.4 -3.2 94 0.0 30 2   100.23   -3 LegendNANA
22:00 -2.5 -3.3 94 0.0 0 1   100.26   -3 LegendNANA
23:00 -2.5 -3.3 94 0.2 23 3   100.32   -4 LegendNANA

Notes on Data Quality.

Legend

  • E = Estimated
  • M = Missing
  • NA = Not Available*
  • [empty] = Indicates an unobserved value
Date modified: